Location: CNYAC Observatory
(43.2150°N, 74.9500°W)
Time: 13:47:19
(UTC-04:00)

Daily predictions for brighter satellites

Satellite Brightness Start Highest point End
(mag) Time Altitude Azimuth Time Altitude Azimuth Time Altitude Azimuth
Cosmos 1869 4.3 20:17:41 10° SSE 20:20:59 26° E 20:24:17 10° NNE
Cosmos 1697 Rocket 2.9 20:16:31 10° SSW 20:22:10 79° WNW 20:27:51 10° NNE
SJ-6B 4.4 20:20:46 10° SSW 20:24:25 38° W 20:28:11 10° NNW
SeaSat 1 4.4 20:22:04 10° E 20:24:53 15° NE 20:27:41 10° N
ATLAS CENTAUR R/B 2.8 20:23:10 10° WNW 20:25:24 33° SW 20:30:01 10° SSE
Cosmos 1400 Rocket 2.9 20:22:46 10° NNW 20:26:41 82° W 20:30:35 10° S
Cosmos 2297 Rocket 4.0 20:24:00 10° NW 20:28:58 32° WSW 20:33:54 10° SSW
Nadezhda 4 Rocket 4.1 20:23:00 10° N 20:29:17 90° E 20:35:36 10° S
OTV 4 2.9 20:28:03 10° SW 20:29:28 13° SSW 20:30:53 10° S
DELTA 2 R/B (1) 4.4 20:27:26 10° W 20:32:40 41° SSW 20:37:53 10° SE
ALOS 3.7 20:28:22 10° SSW 20:32:45 40° W 20:37:08 10° NNW
Cosmos 1892 2.9 20:29:31 10° NNW 20:33:18 75° W 20:37:05 10° S
Cosmos 1634 Rocket 4.2 20:31:14 10° SSE 20:37:18 54° E 20:43:27 10° NNE
Cosmos 1092 Rocket 4.0 20:31:38 10° N 20:37:59 76° E 20:44:20 10° SSE
Cosmos 2263 Rocket 3.4 20:33:34 10° N 20:38:16 27° NE 20:42:39 11° ESE
Meteor 2-3 Rocket 4.3 20:32:53 10° NNW 20:38:31 64° W 20:44:11 10° S
Intercosmos 25 Rocket 4.2 20:36:13 10° SE 20:38:52 25° E 20:41:57 10° NNE
Cosmos 1315 Rocket 2.8 20:34:54 10° N 20:39:01 73° E 20:43:02 10° SSE
H-2A R/B 4.1 20:37:50 10° S 20:41:34 42° W 20:45:17 10° NNW
Cosmos 2322 Rocket 2.8 20:37:57 10° SSE 20:42:54 33° ESE 20:47:53 10° NE
USA 186 1.5 20:40:51 10° S 20:43:30 78° W 20:46:21 10° NNW
H-2A R/B 4.1 20:45:45 10° ENE 20:46:04 10° ENE 20:46:23 10° NE
Cosmos 1707 Rocket 3.5 20:43:13 10° S 20:47:40 83° E 20:52:07 10° N
YAOGAN 6 3.8 20:45:47 14° ESE 20:48:10 25° ENE 20:51:12 10° NNE
Abrixas rocket 2.1 20:45:14 10° WSW 20:48:31 77° SSE 20:51:48 10° ENE
Spot 2 Rocket 4.2 20:43:48 10° S 20:48:48 57° W 20:53:50 10° NNW
USA 267 4.2 20:43:37 10° NE 20:49:54 51° NNW 20:56:11 10° WSW
Cosmos 1733 Rocket 3.8 20:50:01 10° N 20:54:09 36° ENE 20:57:20 15° SE
Cosmos 2360 Rocket 3.7 20:52:40 14° ESE 20:54:22 16° E 20:57:42 10° ENE
Cosmos 1980 Rocket 2.5 20:49:00 10° SSW 20:54:40 73° WNW 21:00:24 10° NNE
Helios 1B rocket 2.3 20:54:03 10° NNE 20:58:10 76° ESE 21:02:15 10° S
Meteor 1-29 2.9 20:56:40 10° NNE 21:00:08 64° E 21:03:35 10° S
Lacrosse 4 Rocket 1.8 20:56:10 10° NNW 21:00:22 50° ENE 21:03:18 19° SE
Cosmos 1862 Rocket 4.3 20:56:58 11° SSE 21:00:41 34° E 21:04:43 10° NNE
Cosmos 1825 2.2 21:01:45 10° N 21:05:31 63° E 21:08:25 16° SSE
Cosmos 1862 3.8 21:02:08 10° N 21:05:59 43° ENE 21:08:23 20° SE
Envisat 3.0 21:03:32 10° SSE 21:08:37 86° WSW 21:13:44 10° NNW
SL-16 R/B 2.3 21:04:12 10° S 21:09:42 55° ESE 21:15:14 10° NNE
Cosmos 1302 Rocket 4.4 21:04:36 10° SSW 21:09:45 65° WNW 21:14:57 10° NNE
Cosmos 1627 Rocket 4.5 21:05:02 10° N 21:11:19 89° E 21:17:28 10° S
Cosmos 1939 Rocket 2.9 21:09:41 12° SSE 21:13:25 88° WSW 21:17:28 10° NNW
Milstar 3 4.1 21:08:03 10° WSW 21:14:00 24° S 21:17:22 17° SSE
Cosmos 2242 Rocket 3.5 21:09:29 10° S 21:14:00 77° E 21:18:30 10° N
SJ-11-01 4.3 21:10:59 10° SSE 21:15:40 82° WSW 21:20:22 10° NNW
SPOT 5 3.8 21:15:36 21° ESE 21:17:46 30° ENE 21:21:52 10° N
CZ-4B DEB 3.3 21:15:55 13° S 21:18:26 52° W 21:21:27 10° NNW
Cosmos 2279 Rocket 4.0 21:13:35 10° S 21:19:46 68° E 21:25:58 10° NNE
ATLAS 5 CENTAUR R/B 3.1 21:15:00 10° NNW 21:20:31 40° NE 21:24:21 20° ESE
USA 234 3.5 21:20:01 18° SSE 21:25:03 62° SW 21:31:33 10° NW
OAO 3 Rocket 4.1 21:23:43 10° WSW 21:28:03 31° S 21:29:18 27° SSE
Resurs 01 Rocket 4.3 21:26:55 10° SW 21:29:58 18° W 21:33:03 10° NW
Helios 1A 4.5 21:27:58 10° SSW 21:31:51 35° W 21:35:46 10° NNW
ARGOS 3.7 21:30:20 27° ESE 21:32:43 42° ENE 21:37:47 10° N
SPOT 1/Viking Rocket 4.5 21:30:50 25° ESE 21:32:43 32° ENE 21:37:19 10° N
Atlas Centaur 2 3.9 21:27:01 10° SSW 21:32:47 24° SSE 21:34:14 23° SE
Cosmos 1428 Rocket 4.4 21:30:24 10° N 21:36:33 87° E 21:41:11 18° S
MOS 1-B Rocket 4.3 21:35:42 27° SE 21:38:32 46° ENE 21:43:54 10° N
Cosmos 2180 Rocket 4.5 21:33:17 10° S 21:39:40 80° E 21:46:02 10° N
Cosmos 1844 Rocket 4.3 21:37:48 10° N 21:41:58 21° NE 21:44:04 17° ENE
ERS-1 Rocket 3.0 21:42:11 24° S 21:45:16 80° WSW 21:50:20 10° NNW
Cosmos 1408 4.1 21:44:06 10° NNW 21:47:30 34° W 21:50:06 15° SSW
ERBS 3.7 21:49:08 10° WNW 21:52:13 30° SW 21:52:43 28° SW
Sich 1 Rocket 3.6 21:48:25 10° N 21:52:52 67° E 21:53:57 48° SE
Meteor 1-14 Rocket 4.3 21:52:13 10° N 21:57:48 59° ENE 21:59:37 41° SE
Cosmos 2219 Rocket 4.4 22:03:40 10° ENE 22:03:40 10° ENE 22:03:45 10° ENE
SeaSat 1 2.4 22:00:11 45° SE 22:01:44 84° ENE 22:06:41 10° NNW
Cosmos 1992 Rocket 4.3 21:58:26 10° SSW 22:03:38 67° WNW 22:08:52 10° NNE
H-2A R/B 3.1 22:07:13 30° ENE 22:07:13 30° ENE 22:10:49 10° N
USA 229 DEB 3.9 22:04:47 33° SSE 22:07:11 46° ESE 22:13:44 10° NE
USA 229 3.9 22:05:03 34° SSE 22:07:18 45° ESE 22:13:49 10° NE
Cosmos 1908 Rocket 3.5 22:05:55 10° N 22:10:16 79° W 22:11:04 58° SSW
MetOp-A 4.3 22:08:21 34° S 22:10:43 68° WSW 22:16:04 10° NNW
USA 245 4.2 22:08:34 39° SSE 22:10:57 89° WSW 22:16:16 10° NNW
Landsat 7 4.2 22:11:17 43° E 22:11:36 44° ENE 22:16:07 10° N
Meteor 1-25 Rocket 4.2 22:11:50 10° N 22:17:24 63° ENE 22:18:23 54° ESE
Cosmos 1867 3.5 22:16:13 10° NNW 22:21:43 82° NE 22:22:40 61° SE
COSMOS 2428 3.5 22:23:05 34° ENE 22:23:05 34° ENE 22:27:07 10° NE
Cosmos 2263 Rocket 2.8 22:17:05 10° NW 22:22:26 49° WSW 22:24:22 34° SSW
Cosmos 1782 Rocket 3.4 22:19:47 10° N 22:24:09 85° ENE 22:24:09 85° ENE
Okean 2 Rocket 3.2 22:19:57 10° N 22:24:13 60° ENE 22:24:13 60° ENE
H-2A R/B 1.8 22:24:03 66° SE 22:24:38 75° ENE 22:29:36 10° N
Abrixas rocket 3.8 22:22:27 10° WNW 22:25:19 34° NNW 22:25:19 34° NNW
Terra 2.4 22:26:53 43° ENE 22:26:53 43° ENE 22:31:14 10° N
Cosmos 2322 Rocket 3.6 22:21:40 10° SW 22:26:51 37° WNW 22:32:05 10° N
IGS 5A 4.4 22:35:11 38° NE 22:35:11 38° NE 22:38:13 10° N
Meteor 2-10 Rocket 4.4 22:30:49 18° SSW 22:35:02 54° WNW 22:40:44 10° N
Cosmos 2360 Rocket 2.3 22:34:16 25° SW 22:37:39 74° WNW 22:43:21 10° NNE
SL-08 RB Rocket 4.0 22:37:52 56° WSW 22:38:15 58° W 22:42:47 10° NNW
Lacrosse 4 Rocket 3.7 22:35:52 10° WNW 22:38:42 17° WSW 22:39:39 16° WSW
Meteor 1-20 Rocket 4.0 22:34:01 10° N 22:39:36 85° E 22:40:13 72° SSE
Cosmos 1844 4.3 22:36:00 10° NNW 22:41:25 43° ENE 22:41:50 42° ENE
Cosmos 2322 3.7 22:40:41 37° SW 22:43:04 78° WNW 22:48:49 10° NNE
Cosmos 968 Rocket 4.0 22:40:43 10° NNW 22:45:43 50° WSW 22:46:23 47° SW
Geosat 4.0 22:43:32 10° NNE 22:47:59 68° ENE 22:47:59 68° ENE
Meteor 2-6 Rocket 4.4 22:49:28 62° E 22:49:28 62° E 22:55:13 10° NNE
ASTEX 1 3.6 22:50:52 60° NE 22:50:52 60° NE 22:55:17 10° N
SL-16 R/B 4.3 22:49:30 10° WSW 22:54:08 25° NW 22:58:49 10° N
Okean 1-7 3.7 22:55:18 54° WNW 22:55:18 54° WNW 22:59:24 10° N
SPOT 5 4.2 22:54:50 29° WSW 22:55:46 31° W 23:00:00 10° NW
CZ-4C R/B 3.8 22:50:41 10° NNW 22:57:06 38° NE 22:59:45 30° E
Cosmos 2151 Rocket 4.4 22:53:14 10° N 22:56:27 45° NNE 22:56:27 45° NNE
Cosmos 1782 4.2 22:59:16 36° N 22:59:16 36° N 23:01:44 10° N
Cosmos 2221 Rocket 4.5 23:00:03 43° W 23:00:07 43° WNW 23:04:21 10° N
Cosmos 2333 Rocket 3.6 23:04:54 27° ENE 23:04:54 27° ENE 23:07:50 10° NE
CZ-4B R/B 4.4 22:58:59 10° NNE 23:01:53 35° NE 23:01:53 35° NE
Cosmos 2333 4.3 23:05:37 65° NE 23:05:37 65° NE 23:10:38 10° NNE
ATLAS 5 CENTAUR R/B 3.0 22:59:37 10° NW 23:05:23 46° WSW 23:05:54 45° SW
Cosmos 1244 Rocket 4.5 23:05:27 10° NNW 23:11:40 74° W 23:12:15 68° SW
Cosmos 2237 Rocket 3.9 23:14:49 22° ENE 23:14:49 22° ENE 23:17:09 10° NE
Cosmos 2278 Rocket 2.9 23:09:09 10° NNW 23:14:18 43° NE 23:14:18 43° NE
Meteor 1-27 Rocket 4.0 23:19:30 58° NE 23:19:30 58° NE 23:24:06 10° NNE
SL-19 R/B 4.5 23:14:00 10° N 23:20:09 73° WNW 23:20:40 69° WSW
Atlas Centaur 2 4.5 23:14:31 10° WSW 23:16:54 19° SW 23:16:54 19° SW
Cosmos 1553 Rocket 3.9 23:23:21 84° ENE 23:23:21 84° ENE 23:29:28 10° N
Cosmos 1844 Rocket 2.9 23:20:51 10° NNW 23:25:44 62° WNW 23:25:44 62° WNW
SL-08 R/B 4.4 23:23:12 10° N 23:29:11 81° WNW 23:29:11 81° WNW
Cosmos 1898 Rocket 4.4 23:31:59 10° N 23:35:51 41° NNE 23:35:51 41° NNE
CZ-2C R/B 4.5 23:33:35 10° NE 23:35:56 21° ENE 23:35:56 21° ENE
Meteor 1-11 Rocket 4.0 23:33:23 10° NNW 23:38:03 62° NW 23:38:03 62° NW
H-2A R/B 4.2 23:44:20 21° WNW 23:44:20 21° WNW 23:46:35 10° NW
NOSS 0 Rocket 4.4 23:45:06 50° NE 23:45:06 50° NE 23:49:39 10° NNE
Cosmos 2219 Rocket 2.7 23:45:20 55° N 23:45:20 55° N 23:49:44 10° NNE
S3M 4.2 23:51:34 62° WNW 23:51:34 62° WNW 23:57:34 10° N
